Location: Warszawa
(52.2500°N, 21.0000°E)
Time: 19:36:05
(UTC+02:00)

A-11 Canister half - Pass Details

Date: 12 February 2023
Orbit: 1526 x 1682 km, 47.3° (Epoch: 27 March)

Event Time Altitude Azimuth Distance (km) Brightness Sun altitude
Exits shadow 04:48:03 24° 237° (WSW) 2,741 9.8 -20.4°
Maximum altitude 04:53:58 61° 167° (SSE) 1,702 9.2 -19.5°
Drops below altitude 10° 05:03:07 10° 90° (E) 3,726 12.3 -18.1°
Sets 05:06:14 0° 87° (E) 4,725 13.3 -17.6°
